Terminal Aerodrome Forecast
Issued by NWS Quad Cities IA IL

Home | Current Version | Previous Version | Text Only | Print | Product List | Glossary On
Versions: 1 2 3 4 5 6 7 8 9 10 11 12 13 14 15 16 17 18 19 20 21 22 23 24 25 26 27 28 29 30 31 32 33 34 35 36 37 38 39 40 41 42 43 44 45 46 47 48 49 50
000
FTUS43 KDVN 181340 AAB
TAFMLI
TAF AMD
KMLI 181340Z 1814/1912 08003KT P6SM SKC
     FM181800 13004KT P6SM SCT045 BKN060
     FM182300 VRB03KT P6SM BKN050=

USA.gov is the U.S. government's official web portal to all federal, state and local government web resources and services.